Regional Weather Roundup
Issued by NWS

Home | Current Version | Previous Version | Graphics & Text | Print | Product List | Glossary On
Versions: 1 2 3 4 5 6 7 8 9 10 11 12 13 14 15 16 17 18 19 20 21 22 23 24 25 26 27
000
ASUS45 KBOU 120310
RWRCO

WEATHER ROUNDUP FOR COLORADO
NATIONAL WEATHER SERVICE DENVER/BOULDER CO
800 PM MST MON DEC 11 2017

NOTE: "FAIR" INDICATES FEW OR NO CLOUDS BELOW 12000 FEET WITH NO
SIGNIFICANT WEATHER AND/OR OBSTRUCTIONS TO VISIBILITY.

COZ001>005-013-030-031-120400-
...NORTHWEST COLORADO...

CITY           SKY/WX    TMP DP  RH WIND       PRES   REMARKS
CRAIG          FAIR      17  11  77 CALM      30.52S
HAYDEN         FAIR      26  12  55 E10       30.53S WCI  16
MEEKER         FAIR      29   8  41 E3        30.50R
RABBIT EARS PA FAIR      28   9  43 NW5       30.57S WCI  23
STEAMBOAT SPGS FAIR      27  13  56 CALM      30.53R
WALDEN         FAIR      14   5  67 SE9       30.54S WCI   2
$$

COZ006>008-011-120400-
...WEST CENTRAL VALLEYS...

CITY           SKY/WX    TMP DP  RH WIND       PRES   REMARKS
GRAND JUNCTION FAIR      29   1  30 E5        30.47R WCI  24
MONTROSE       FAIR      24   0  35 S6        30.50S WCI  17
EAGLE          FAIR      21  10  62 E6        30.58R WCI  13
RIFLE          FAIR      28   4  35 E5        30.49R WCI  23
DELTA          FAIR      32  -4  21 S3        30.49S
NUCLA          FAIR      34  -8  16 E7        30.50R WCI  28
$$

COZ017>023-064>068-120400-
...SOUTHWEST COLORADO...

CITY           SKY/WX    TMP DP  RH WIND       PRES   REMARKS
DURANGO        FAIR      26   2  35 CALM      30.43R
CORTEZ         FAIR      21  -1  38 E10       30.43S WCI  10
PAGOSA SPRINGS FAIR      29  -1  27 CALM      30.46S
TELLURIDE      FAIR      35   0  23 SE6       30.54F WCI  30
WOLF CREEK PAS FAIR      32  -9  16 N7        30.65R WCI  26
$$

COZ009-010-012-014-032>034-037-058>063-120400-
...CENTRAL COLORADO...

CITY           SKY/WX    TMP DP  RH WIND       PRES   REMARKS
ASPEN          FAIR      27  12  53 SW6       30.52S WCI  20
BUENA VISTA    FAIR      35   6  30 W8        30.50S WCI  28
COPPER MTN     NOT AVBL
BERTHOUD PASS  FAIR      19   9  63 NW18G25   30.58S WCI   4
COTTONWOOD PAS FAIR      39   3  22 W9        30.54S
GUNNISON       FAIR      22   3  44 CALM      30.53R
KREMMLING      FAIR      18  10  73 CALM      30.59R
LEADVILLE      FAIR      24   9  52 N5        30.55R WCI  18
MONARCH PASS   FAIR      30   0  27 NW3       30.71R
SALIDA         FAIR      35   2  24 SW6       30.58R WCI  30
SUNLIGHT       FAIR      28  14  54 N3        30.63S
WILKERSON PASS FAIR      30   1  29 N12       30.59S WCI  21
$$

COZ069>075-120400-
...SAN LUIS VALLEY/SANGRE DE CRISTO MOUNTAINS...

CITY           SKY/WX    TMP DP  RH WIND       PRES   REMARKS
ALAMOSA        FAIR      19  -5  34 S6        30.47R WCI  11
DEL NORTE      FAIR      30  -2  25 W14       30.48S WCI  19
LA VETA PASS   FAIR      28   0  29 NW6         N/A  WCI  22
SAGUACHE       FAIR      37   1  22 N13       30.48S
$$

COZ035-036-038>040-120400-
...NORTHERN COLORADO FRONT RANGE...

CITY           SKY/WX    TMP DP  RH WIND       PRES   REMARKS
DENVER INTL AP FAIR      40   8  26 SE3       30.45R
DMNS CITY PARK NOT AVBL
AURORA         PTCLDY    36   7  30 E7        30.46R
FRONT RANGE AP PTCLDY    36   7  30 SE6       30.46R
ERIE MUNI ARPT FAIR      36   8  30 SE8       30.49R
BOULDER MUN AP FAIR      41   9  26 SW6       30.41S
CENTENNIAL     FAIR      34  10  37 S6        30.44S WCI  29
BROOMFIELD     PTCLDY    41   9  26 SW7       30.44S
FORT COLLINS   FAIR      37  10  32 S10       30.43R
LONGMONT       FAIR      33  13  42 CALM      30.45R
$$

COZ041-046-047-076>085-087-088-120400-
...PIKES PEAK/PALMER DIVIDE AND SOUTHERN FOOTHILLS...

CITY           SKY/WX    TMP DP  RH WIND       PRES   REMARKS
COLO. SPRINGS  FAIR      38   5  25 N7        30.47R
A. F. ACADEMY  FAIR      28   2  33 N8        30.46S WCI  19
SCHRIEVER AFB  FAIR      39   3  22 NW6       30.47R
CHEYENNE MTN   FAIR      38   1  21 CALM      30.42S
ELLICOTT         N/A    N/A N/A N/A NW7       30.46R
FALCON         FAIR      37   3  24 NW7       30.48R
FORT CARSON    FAIR      43  -1  15 W6        30.45S
LIMON          FAIR      21   5  50 NW6       30.45R WCI  13
MONUMENT HILL  FAIR      23   5  46 SW6       30.48S WCI  16
CANON CITY     FAIR      36   3  25 NW6       30.45F
WALSENBURG     FAIR      32   3  29 W12       30.48S WCI  23
TRINIDAD       FAIR      27   6  41 W8        30.47R WCI  19
$$

COZ042>045-048>051-090-091-120400-
...NORTHEAST COLORADO...

CITY           SKY/WX    TMP DP  RH WIND       PRES   REMARKS
GREELEY ARPT   FAIR      34  10  37 SW8       30.45R WCI  27
AKRON          FAIR      32   8  36 N13       30.41R WCI  22
BURLINGTON     FAIR      33  10  38 NW6       30.41R WCI  28
WRAY           FAIR      32  10  40 N7        30.43R WCI  26
YUMA           FAIR      37  12  35 NW10      30.41S
STERLING       FAIR      32  12  43 N8        30.41F WCI  25
HOLYOKE        FAIR      32  12  43 S3        30.42R
FORT MORGAN    FAIR      39   7  26 N14       30.43R
$$

COZ086-089-092>099-120400-
...SOUTHEAST COLORADO...

CITY           SKY/WX    TMP DP  RH WIND       PRES   REMARKS
PUEBLO         FAIR      30   2  30 W6        30.44R WCI  24
LA JUNTA       FAIR      44   7  21 CALM      30.44R
LAMAR          FAIR      34   7  32 SW5       30.42R WCI  30
SPRINGFIELD      N/A     29   9  43 NW7       30.42R WCI  22
$$




USA.gov is the U.S. government's official web portal to all federal, state and local government web resources and services.